Wind_Speed
12 9 6 5 5 4 5 2 1 2 2 2 4 4 8 10 10 11 15 14 5 5 2 9 11 11 11 11 13 14 11 6 3 2 3 5 15 26 28 32 34 33 31 26 25 25 24 23 22 23 22 22 21 21 21 20 20 21 22 22 21 21 20 19 18 19 18 18 18 18 18 18 17 17 17 16 16 17 17 16 16 15 15 15 15 14 14 14 14 14 14 13 13 12 11 11 15
11 8 6 4 5 2 2 2 1 2 3 3 5 7 9 5 9 12 15 15 4 2 3 12 15 18 18 14 12 15 13 11 10 7 8 18 22 22 27 32 34 34 31 27 26 25 24 23 22 22 22 22 21 21 21 20 21 21 22 22 21 20 19 18 18 18 17 17 17 17 17 16 17 16 16 16 16 16 16 15 15 15 15 15 14 14 14 14 13 13 13 11 12 11 10 13 16
11 7 6 6 5 3 2 1 2 2 4 5 6 7 8 6 11 11 10 8 4 2 6 12 14 12 15 16 13 12 8 8 13 10 9 20 18 16 26 30 32 33 31 28 26 25 25 23 22 22 22 22 21 22 21 20 21 22 22 22 21 20 18 18 17 17 16 15 16 16 16 16 16 16 15 15 15 15 15 15 14 14 14 14 14 14 13 13 12 13 12 11 11 9 11 15 17
10 7 8 6 2 2 1 1 3 2 3 5 6 5 7 10 12 7 4 3 2 4 7 9 10 8 15 18 10 9 6 6 12 11 7 14 18 21 27 27 30 31 29 28 25 25 24 22 22 21 21 21 22 22 21 20 21 22 23 22 21 20 18 17 16 16 15 15 16 16 15 15 15 15 15 16 15 15 15 14 13 13 13 13 14 14 13 13 12 11 11 11 9 8 13 17 18
10 9 10 6 1 1 1 2 3 3 6 5 4 5 6 9 4 2 2 4 4 5 7 6 6 6 13 12 4 4 4 5 10 12 12 18 26 26 25 27 29 28 27 26 25 25 23 22 22 21 21 21 22 22 22 21 21 22 23 22 21 20 18 17 15 15 15 14 15 15 15 15 15 15 16 15 16 16 15 14 13 13 13 13 13 15 14 12 12 11 11 10 8 10 14 16 17
9 8 9 7 3 2 0 3 3 5 8 6 6 9 9 6 2 7 1 2 2 4 9 8 9 9 9 7 6 5 4 6 8 14 19 23 27 26 26 28 27 26 25 25 25 24 23 22 22 21 21 21 22 22 22 21 21 23 23 23 21 19 18 16 15 14 14 14 15 15 15 15 15 16 15 14 14 14 13 13 13 13 13 13 13 15 14 12 11 10 10 8 7 11 15 15 16
6 4 4 4 3 2 1 4 4 6 8 8 9 12 12 7 3 5 2 1 3 3 9 10 12 13 7 4 5 7 9 10 10 17 24 26 27 26 27 27 26 25 23 24 24 24 23 22 22 22 22 22 22 22 22 21 22 24 24 23 21 19 18 16 15 14 14 14 14 14 15 14 13 14 13 12 12 11 11 11 11 11 11 11 12 13 12 11 10 10 9 7 8 12 14 14 14
7 3 1 1 1 2 2 4 5 7 8 10 11 12 12 8 5 2 2 1 2 0 7 12 14 13 6 8 6 6 14 19 21 25 28 28 27 27 27 27 26 24 21 23 23 23 23 22 22 22 23 22 22 22 22 22 23 25 24 22 21 19 18 16 15 15 15 14 14 14 13 12 12 12 12 11 10 10 10 10 10 10 10 10 12 12 11 10 9 9 7 6 8 11 12 12 12
7 4 1 1 2 3 3 5 6 10 10 12 13 11 8 3 2 2 3 3 4 2 4 12 12 11 7 12 9 4 13 23 28 26 27 27 27 27 27 28 26 24 21 22 24 23 23 22 22 23 23 22 22 23 23 23 23 25 24 22 20 19 18 16 15 15 14 14 13 13 12 12 11 11 11 11 10 10 9 8 8 10 11 11 11 11 10 10 9 8 7 6 8 9 10 10 10
4 4 1 1 2 4 5 5 7 10 11 14 14 8 3 2 2 1 2 3 2 2 8 13 12 13 11 11 7 3 10 21 26 24 25 26 25 26 27 28 26 24 22 22 24 24 23 23 22 22 22 22 22 22 23 23 24 25 24 22 20 18 17 16 15 14 14 14 14 14 13 12 11 10 10 10 10 10 9 7 8 10 10 10 10 10 10 9 8 7 6 6 8 8 6 7 7
2 3 2 2 2 4 5 6 8 9 11 13 12 8 6 4 3 2 2 2 2 2 11 14 10 14 12 8 3 4 13 21 24 23 24 24 24 25 27 28 26 24 23 24 25 24 24 22 22 22 22 21 22 22 23 24 25 25 23 21 19 17 16 16 15 14 15 15 15 15 14 12 11 11 11 11 11 10 9 8 9 9 9 9 8 9 9 8 7 6 5 5 8 7 5 5 5
2 3 2 2 3 4 6 7 9 10 10 12 9 5 6 5 5 2 1 1 0 1 3 9 9 11 10 6 3 5 13 19 22 23 23 24 24 23 26 28 25 24 23 25 26 25 24 23 21 22 22 21 22 23 24 25 25 25 22 20 17 16 15 15 15 16 16 16 15 16 15 13 12 12 12 12 12 10 9 9 9 8 8 7 7 8 8 7 6 5 4 4 6 6 5 4 3
3 4 2 3 4 4 7 7 8 9 8 8 5 4 5 7 5 4 3 2 1 1 1 10 12 9 8 5 5 6 10 16 21 22 23 23 23 23 24 25 23 22 23 25 26 25 24 23 22 22 22 22 23 24 25 25 24 23 21 18 16 15 15 15 17 17 16 15 16 16 15 13 13 12 12 12 11 10 9 9 9 8 7 7 7 7 7 7 5 5 4 3 5 4 3 3 3
4 4 2 4 4 5 6 7 8 7 6 6 3 3 3 4 2 3 4 3 4 5 8 12 11 11 8 5 5 4 7 18 23 21 23 23 22 23 23 23 22 21 23 25 26 25 25 24 23 23 23 23 24 25 24 24 23 22 19 17 16 15 15 16 18 19 16 15 16 16 15 14 13 12 11 10 9 9 8 8 8 7 7 7 7 6 6 5 4 4 3 3 3 3 3 3 3
6 3 3 4 4 5 6 7 8 6 5 5 2 2 5 3 1 4 6 8 8 5 8 9 6 8 7 7 6 6 12 23 24 22 24 22 22 23 23 22 22 21 22 24 25 25 25 24 23 23 24 24 25 25 24 23 21 19 17 17 17 16 16 17 18 18 17 16 16 16 15 14 13 11 11 10 8 7 7 7 7 6 6 6 5 4 4 4 4 3 3 3 3 4 4 3 3
5 3 3 4 5 6 6 7 8 6 6 6 3 2 6 3 3 4 4 10 7 6 9 4 2 6 10 9 10 14 19 25 25 25 24 22 23 23 23 23 22 23 23 24 25 24 24 25 24 23 23 24 24 24 23 22 19 17 17 18 17 16 16 16 16 15 16 17 17 16 15 15 14 11 10 9 8 6 5 5 5 6 6 6 7 6 6 6 5 5 4 4 3 3 4 3 3
4 4 4 5 5 6 7 7 6 5 4 3 4 3 5 3 2 2 7 15 11 9 11 8 7 6 10 11 18 24 24 26 27 26 23 21 22 21 20 21 21 22 24 24 23 23 24 25 24 23 23 23 22 22 22 21 18 18 19 19 17 16 16 15 14 14 16 19 18 16 15 16 14 12 10 9 8 6 5 4 5 6 6 7 9 8 8 8 8 7 6 5 4 4 4 4 4
4 4 4 5 5 7 9 9 7 4 3 4 6 7 6 4 2 1 9 17 13 12 11 10 13 10 11 19 27 27 26 27 27 24 20 19 19 18 17 18 19 21 24 23 22 22 23 24 24 23 23 22 22 22 22 20 19 21 20 18 16 15 15 15 15 15 16 19 18 15 15 16 14 12 11 10 8 6 5 4 4 6 7 8 8 8 8 8 9 8 7 6 5 5 6 6 5
4 3 5 5 7 10 11 10 10 6 4 4 4 5 5 3 3 2 5 12 12 12 9 11 15 12 13 19 24 24 24 25 24 21 18 16 16 15 16 17 19 21 23 23 23 23 23 24 24 23 23 22 22 22 21 19 20 21 20 19 17 16 15 15 15 15 16 17 16 15 15 15 14 12 10 9 7 6 6 5 4 5 6 7 7 6 7 7 8 8 7 7 7 7 7 6 4
5 4 4 5 8 12 12 12 13 9 3 3 3 2 2 3 2 2 5 11 11 10 8 9 13 12 11 11 16 20 20 20 21 19 16 15 16 17 17 17 20 21 23 23 23 24 24 24 24 23 23 23 22 21 20 19 19 19 20 20 19 18 17 14 14 15 15 15 15 14 14 13 13 12 10 8 7 7 6 5 5 5 5 5 5 5 6 6 6 6 7 7 7 7 6 3 3
4 5 6 8 9 11 14 13 13 11 4 1 3 3 3 4 1 3 8 9 6 7 9 10 13 14 13 10 11 14 14 16 17 17 15 14 16 18 18 19 21 23 24 22 22 24 25 24 24 23 23 22 20 19 20 20 19 19 20 20 18 19 18 15 14 14 13 13 14 15 13 12 12 12 11 9 8 7 6 5 5 5 4 5 5 6 6 5 4 4 5 5 6 6 3 1 4
4 6 9 12 11 12 15 11 13 12 5 4 4 3 4 5 4 2 6 6 4 7 11 13 14 14 14 12 9 10 10 10 12 14 14 15 16 17 18 20 22 24 24 21 21 23 23 24 24 24 24 21 19 19 21 20 18 19 19 19 19 19 19 16 14 14 13 13 14 14 13 12 13 13 12 10 8 7 6 5 5 5 5 4 4 5 4 2 2 1 0 2 2 2 1 1 3
6 7 8 12 12 12 14 12 10 6 6 7 6 4 5 6 5 6 2 7 9 10 13 14 13 13 14 12 10 10 10 9 9 11 14 16 16 17 19 20 23 24 23 22 22 22 21 23 24 23 22 20 19 21 21 20 19 18 17 19 20 19 19 17 15 15 14 14 14 13 13 12 13 13 13 11 9 8 7 6 6 5 4 3 4 4 2 2 2 3 4 4 3 3 2 2 1
9 8 8 11 11 12 12 13 7 2 4 5 5 9 7 1 2 5 3 11 15 13 13 14 13 13 13 11 9 9 9 8 8 10 14 16 16 19 21 23 25 25 24 23 23 22 20 20 21 20 19 19 19 20 21 20 19 17 16 18 19 18 19 17 16 15 14 14 14 12 12 12 13 14 13 12 11 11 10 8 8 7 6 5 5 5 5 4 4 4 6 5 3 3 3 3 1
9 9 10 10 10 11 11 12 8 4 4 3 1 8 9 2 2 4 8 15 14 14 14 15 15 12 11 11 10 9 8 8 8 11 12 13 16 20 23 24 26 25 25 25 23 22 20 17 18 19 19 19 18 18 19 20 18 16 16 17 17 17 17 17 16 15 15 15 14 11 11 12 13 14 13 12 12 12 11 11 9 9 9 7 6 6 5 4 3 3 4 4 1 2 3 4 2
7 9 10 10 10 12 11 12 10 4 5 6 6 6 9 4 4 3 9 14 11 14 15 15 15 13 10 10 10 9 9 8 9 9 11 16 19 20 22 24 24 25 26 26 23 20 19 17 19 22 21 20 20 18 18 18 16 14 16 17 16 15 15 15 16 16 17 16 13 12 12 12 12 13 13 12 11 11 11 11 9 9 9 7 8 7 5 3 1 1 2 4 2 1 2 3 2
8 10 10 12 12 11 12 12 10 5 2 5 5 5 7 5 1 2 6 13 12 13 13 13 14 12 11 9 8 9 9 9 10 9 10 16 19 21 22 22 23 25 24 22 21 21 21 21 21 22 20 20 21 19 17 17 15 14 15 15 13 13 13 14 15 16 16 14 14 14 13 13 12 13 13 11 10 10 10 10 9 9 8 7 8 7 5 2 1 1 1 4 3 1 1 2 2
10 11 10 11 12 11 12 12 9 5 2 3 3 5 5 3 3 6 5 11 15 14 14 13 12 10 10 10 9 8 7 11 13 11 10 13 18 21 19 17 21 24 21 19 22 23 22 22 22 21 19 21 21 20 19 18 16 15 15 14 13 12 13 14 14 14 14 13 15 15 14 14 13 13 13 10 9 9 9 10 10 9 7 7 7 6 4 2 2 1 2 3 4 2 1 2 2
10 10 10 10 10 10 10 10 8 4 4 5 6 5 5 4 5 8 8 10 15 15 15 14 12 10 10 10 9 7 7 10 11 10 12 14 16 21 24 20 20 20 21 25 26 25 23 22 23 22 22 24 23 21 21 20 19 18 16 15 15 13 13 15 14 13 13 14 14 15 15 14 12 11 10 9 8 8 9 9 8 7 6 6 7 6 4 3 3 2 3 3 3 3 2 2 2
7 7 6 6 7 8 7 6 7 5 5 6 7 4 6 6 8 10 9 9 15 15 14 13 12 10 9 9 8 7 7 8 9 9 9 17 25 32 30 22 21 20 23 27 28 27 25 25 25 23 22 24 24 22 21 21 21 19 16 16 16 13 12 15 14 13 14 14 15 15 14 12 9 8 9 9 8 8 8 7 5 5 6 6 6 5 5 5 4 4 4 3 3 5 3 3 2
5 6 5 4 4 5 5 4 6 6 6 8 8 5 7 7 9 11 10 8 14 14 13 13 11 10 9 8 8 8 7 8 7 10 22 33 35 34 29 23 21 20 24 29 29 28 28 27 27 24 23 22 22 22 22 21 20 19 17 16 16 14 14 14 13 12 13 13 14 15 12 10 9 9 10 8 7 7 7 6 4 4 5 6 6 6 6 6 5 4 3 4 4 5 5 5 4
4 5 4 4 4 4 6 6 8 8 6 8 7 4 5 6 9 11 10 8 13 15 12 13 12 12 10 8 8 7 6 7 14 28 36 35 32 31 28 25 25 24 26 30 30 30 30 29 28 26 23 22 20 20 21 21 20 18 16 16 15 14 13 13 12 11 10 10 12 12 10 9 9 9 9 8 7 8 6 5 5 5 5 6 7 7 6 6 5 4 3 4 5 6 4 4 4
3 4 4 4 4 4 6 7 10 11 7 8 9 6 3 6 11 10 11 11 14 17 13 14 14 12 11 8 8 7 6 10 19 26 31 31 29 28 26 27 30 28 29 31 30 29 30 29 28 27 25 23 21 20 20 21 19 17 15 14 13 12 11 11 11 9 8 9 8 8 8 7 7 6 7 7 8 8 6 6 6 5 6 6 7 7 6 5 3 3 4 4 5 7 4 4 5
4 4 5 5 6 5 5 6 10 13 10 10 11 8 5 7 11 10 10 11 12 16 14 16 14 11 10 8 8 7 9 13 14 17 24 27 26 26 25 27 31 31 32 33 31 29 30 29 28 27 27 25 23 21 20 20 19 17 14 13 13 13 12 11 11 10 9 10 7 6 8 6 6 7 8 9 10 8 6 7 7 6 6 6 6 7 6 5 3 3 4 4 5 6 6 4 5
6 6 5 6 8 8 8 8 8 11 13 13 10 10 10 10 9 10 8 5 6 10 11 13 15 12 10 8 8 12 17 15 12 17 25 26 26 28 27 27 29 29 31 30 29 30 30 30 30 29 27 25 24 22 21 20 20 18 16 15 15 14 13 12 11 11 11 12 9 10 11 10 8 8 10 11 9 7 7 6 6 6 5 5 6 7 6 5 4 4 5 4 4 5 6 5 4
11 10 5 5 6 7 11 12 11 10 13 15 11 11 13 11 9 11 8 5 7 10 11 10 12 12 9 9 12 16 18 15 13 19 25 26 28 29 28 29 27 26 28 27 27 30 31 31 31 30 27 26 26 24 21 21 21 21 20 18 17 18 17 16 15 13 13 15 15 14 14 12 10 9 11 10 9 7 7 7 6 5 5 5 6 6 5 3 3 4 4 3 3 4 5 5 4
11 10 7 8 6 6 10 13 14 10 10 13 11 12 14 11 10 11 9 9 6 8 11 9 11 11 9 14 16 16 16 13 15 19 23 26 28 28 28 28 24 24 28 30 30 30 31 33 31 30 28 26 25 24 22 22 23 22 22 21 20 21 21 21 20 17 18 18 16 15 14 12 11 11 11 11 10 8 7 7 6 5 4 4 5 4 3 3 3 4 3 3 3 3 5 5 5
10 7 7 8 7 7 11 15 16 10 8 10 10 11 13 11 11 11 7 6 3 6 8 10 14 11 12 17 17 16 13 12 13 15 20 26 28 29 29 27 23 28 31 32 32 30 31 32 31 31 29 27 26 25 24 24 23 22 23 23 21 20 20 21 21 20 20 18 15 15 14 13 12 13 13 11 9 8 8 8 7 7 5 5 6 5 5 5 4 4 3 3 4 4 4 5 5
8 6 5 6 6 6 11 16 14 8 6 8 11 10 10 10 11 10 7 9 8 8 9 12 14 12 14 16 15 15 14 14 14 13 16 22 25 27 29 27 25 29 31 30 31 31 33 33 31 31 29 28 27 26 26 25 22 21 22 23 23 21 20 21 21 21 20 18 15 14 15 16 16 15 14 12 10 10 10 9 9 8 6 6 6 6 6 6 5 5 3 2 3 4 4 4 3
5 5 5 5 7 5 6 10 6 3 5 5 8 5 4 5 6 6 6 8 8 8 8 11 12 15 16 16 16 16 16 16 15 12 12 17 21 23 26 27 25 27 29 30 32 33 33 34 33 31 29 28 28 28 26 24 20 20 22 23 24 24 22 20 18 18 18 18 16 14 14 16 17 16 14 12 11 10 9 9 9 8 7 5 5 4 4 4 4 4 4 2 3 5 5 4 4
3 5 5 5 9 7 4 8 9 5 4 6 7 3 4 2 3 6 4 4 5 7 11 16 15 15 15 15 15 14 15 16 15 13 11 12 16 20 24 26 26 28 30 31 33 33 33 34 34 32 30 29 30 29 25 21 20 23 27 27 27 27 24 21 20 18 18 17 16 14 13 14 16 16 13 12 11 11 10 9 9 9 8 7 6 5 7 7 7 6 5 4 3 4 6 6 5
3 4 6 7 11 9 7 9 8 6 4 2 6 4 5 5 3 6 5 3 6 5 12 18 16 14 14 12 12 11 12 14 15 15 15 14 16 20 23 25 25 26 27 29 30 31 32 33 32 31 30 30 30 27 24 25 27 31 34 32 30 28 25 24 23 22 20 17 15 14 14 16 18 17 13 12 12 12 10 8 9 11 10 9 7 6 8 9 9 9 8 6 4 5 8 9 8
3 4 6 9 12 8 7 8 5 0 3 2 4 5 4 6 5 8 4 6 8 9 15 18 15 13 12 11 10 10 11 11 12 13 14 13 16 18 19 21 22 22 24 25 26 28 30 31 30 31 31 31 30 28 26 29 32 33 33 31 29 28 26 24 22 22 20 18 17 16 15 16 17 17 15 14 12 11 9 7 9 11 12 11 9 10 10 9 10 10 9 9 8 7 9 11 10
4 4 7 11 11 9 7 5 5 3 3 1 2 6 2 3 6 8 4 7 9 15 16 15 14 13 11 11 11 10 10 10 10 11 11 11 14 17 17 19 21 22 23 23 23 25 28 29 30 31 33 33 31 28 28 30 30 29 29 29 28 26 25 24 24 23 20 19 18 16 14 14 14 14 14 14 12 10 9 9 9 12 13 13 11 12 12 11 11 10 10 12 12 11 11 12 11
5 6 9 10 10 10 6 5 5 2 3 3 2 5 2 3 6 7 4 7 9 14 15 13 14 14 11 11 11 10 11 10 10 11 10 9 13 17 20 22 21 21 21 21 21 23 24 26 27 30 33 33 30 28 28 27 26 27 28 28 27 25 25 26 25 24 20 19 18 16 14 14 14 14 12 13 13 10 10 14 14 15 15 13 11 11 11 11 12 11 12 13 14 14 13 13 12
6 7 9 8 8 9 7 5 4 1 3 4 5 3 2 4 5 5 3 7 9 11 11 13 14 13 11 11 11 11 11 10 9 10 10 10 14 18 21 23 21 19 19 19 20 21 22 22 24 28 31 31 29 29 29 27 26 28 28 28 28 29 27 26 25 23 20 19 19 19 18 18 17 16 14 14 13 12 12 16 17 17 15 13 13 14 13 13 13 12 12 12 12 12 11 11 11
7 6 6 7 7 6 5 4 3 3 1 5 5 3 2 3 5 3 3 5 8 12 9 10 11 11 10 9 9 10 9 10 10 9 8 11 14 17 20 21 20 19 18 18 20 23 23 22 24 27 29 29 29 29 29 28 27 26 27 29 31 31 28 27 25 23 21 21 21 21 20 19 18 18 18 17 15 13 13 14 16 17 15 14 15 14 14 14 14 12 12 12 12 12 12 12 13
7 5 4 3 5 4 4 1 3 3 3 5 6 6 4 3 4 3 4 6 6 15 13 12 11 9 8 7 8 8 8 10 11 9 9 9 10 13 17 19 19 19 18 18 20 23 23 24 26 28 28 28 29 29 28 28 26 24 27 30 31 30 28 28 26 24 23 22 22 21 20 19 18 17 18 18 16 15 15 15 15 17 16 15 15 14 13 14 14 13 12 12 12 13 15 16 17
6 5 4 2 2 3 2 2 2 4 4 5 7 7 4 4 1 4 7 10 8 12 15 15 14 10 9 9 9 6 6 10 10 9 8 7 6 9 14 17 19 19 19 18 20 21 21 22 24 27 28 29 30 28 27 27 26 25 28 29 28 28 29 28 26 24 22 21 21 22 20 19 19 18 17 17 16 16 16 16 16 17 16 15 15 16 15 15 14 14 13 12 12 13 15 17 18
4 5 5 4 2 1 2 3 2 2 3 6 8 7 4 2 2 7 8 10 10 11 13 14 14 12 11 10 10 8 6 8 8 8 8 6 6 8 12 15 16 18 18 17 17 17 18 19 21 23 25 26 27 25 24 24 23 25 27 27 27 28 28 27 26 23 21 22 23 22 20 20 20 19 19 18 17 16 16 16 17 16 16 16 16 17 16 15 15 15 15 14 14 15 17 18 18
4 4 5 4 4 4 3 2 2 3 3 4 4 4 2 2 1 4 8 11 12 11 9 10 10 9 9 10 10 9 7 7 8 6 4 5 8 9 11 12 13 14 14 12 12 12 14 16 19 21 22 20 21 21 20 19 21 22 22 24 26 26 25 25 24 23 21 22 22 20 20 20 20 19 19 18 17 17 17 17 17 17 17 17 17 17 17 16 17 17 16 16 16 16 18 18 17
3 2 3 4 5 5 3 2 4 4 1 3 1 0 1 2 2 3 8 11 12 11 9 8 8 8 10 10 8 9 9 9 10 8 4 6 9 10 12 13 13 13 11 9 10 11 13 17 18 19 19 19 19 20 20 19 20 19 18 21 24 23 22 23 23 22 20 20 20 20 20 21 20 20 19 18 17 17 18 19 19 18 17 16 16 16 17 17 17 17 16 16 17 16 17 18 18
2 1 3 6 5 7 4 2 1 4 3 2 1 3 2 1 3 3 7 10 10 10 9 8 8 9 10 8 7 8 8 8 10 11 9 6 7 9 12 14 15 18 13 9 12 15 18 21 21 18 18 20 20 19 19 20 20 17 16 20 21 21 22 22 22 22 20 19 19 20 21 21 20 20 19 18 19 19 19 19 19 18 18 17 17 17 17 17 17 17 17 17 16 16 17 18 18
2 2 5 3 2 4 4 2 2 4 2 3 2 6 3 2 3 2 6 8 7 7 8 8 7 8 8 7 6 7 8 7 8 8 7 5 6 8 9 9 14 21 20 16 14 15 19 21 19 18 20 20 20 19 18 18 16 14 16 18 19 20 21 21 21 20 20 20 20 21 21 21 20 19 19 20 20 19 18 18 18 18 18 18 18 17 17 17 17 17 17 16 16 17 18 18 17
6 4 3 1 3 1 1 3 2 1 2 2 2 3 2 1 1 2 4 5 5 6 6 7 7 6 7 6 6 7 7 7 6 6 5 4 7 8 8 7 10 15 19 20 14 11 18 20 15 15 18 19 19 18 16 15 11 11 16 17 17 18 20 20 20 20 21 20 21 21 21 21 20 19 19 20 19 18 17 18 18 17 17 18 17 16 17 17 17 17 16 15 15 16 17 17 15
6 4 2 2 3 3 1 2 3 3 2 2 2 2 1 2 2 1 6 7 8 7 6 6 6 6 5 5 6 6 7 7 6 6 5 4 7 10 9 7 7 9 10 15 15 12 15 19 15 15 16 16 17 18 16 14 11 12 17 16 13 16 20 21 20 21 21 20 20 21 21 20 20 19 19 19 18 16 16 16 16 16 17 18 16 15 16 16 16 15 15 15 14 12 12 12 13
3 3 2 2 2 3 2 1 2 3 3 2 1 1 3 4 5 3 9 8 7 8 7 6 5 6 5 4 4 5 6 7 7 6 6 5 8 10 9 8 9 10 8 9 13 12 11 14 14 14 15 14 16 19 18 15 12 14 17 15 13 15 19 22 22 22 20 18 19 20 19 19 18 18 18 18 17 15 15 14 14 14 16 17 15 14 13 13 14 13 11 12 11 11 12 11 11
5 4 2 1 1 3 3 0 2 1 2 2 3 2 2 3 6 3 5 8 6 6 7 6 5 5 5 3 4 4 5 6 7 8 7 6 8 10 10 11 12 13 11 7 8 11 11 12 11 8 11 13 15 18 17 14 14 15 15 14 13 14 17 19 20 20 18 16 17 18 18 18 18 17 17 16 16 15 14 13 13 13 13 13 13 13 11 11 12 11 9 8 9 11 12 10 9
Wind_Direction
217 213 216 233 256 287 291 218 161 254 189 264 251 245 244 229 238 265 269 271 294 290 349 79 70 76 92 94 97 78 50 35 60 104 125 139 117 127 140 142 144 147 148 150 151 151 151 152 153 151 151 152 152 151 149 145 143 146 146 144 141 139 136 129 123 122 123 125 127 126 126 125 124 123 121 119 115 113 113 113 115 115 112 109 106 102 99 96 94 95 96 97 95 93 94 97 100
207 214 217 236 259 267 280 191 172 239 164 263 242 229 252 247 241 248 259 264 258 264 48 77 78 87 95 91 86 73 55 44 66 83 102 119 114 119 134 141 146 147 148 151 152 151 151 152 153 152 154 154 153 152 150 147 146 149 148 146 143 142 138 129 125 126 127 128 132 131 129 128 126 123 120 119 118 117 117 117 115 115 114 112 109 106 104 100 97 96 96 97 96 94 95 98 105
209 227 248 254 255 228 284 255 202 231 165 240 246 231 261 268 247 249 272 263 193 147 67 64 60 74 84 74 60 67 76 64 81 90 111 121 115 122 135 142 146 147 148 150 152 152 151 152 155 154 155 156 155 153 152 149 148 151 150 147 145 144 139 131 128 131 131 130 135 136 134 132 127 122 120 119 120 121 119 116 112 113 115 114 113 111 108 104 99 99 97 97 99 98 98 102 112
217 226 258 266 266 219 278 236 197 223 206 236 256 241 245 249 248 247 288 342 58 46 61 70 56 49 74 79 71 70 74 82 103 111 117 120 123 134 138 141 142 142 144 148 152 152 151 152 156 156 157 158 156 155 154 152 152 153 151 149 147 146 141 135 132 133 133 131 135 138 138 136 130 125 124 122 121 120 118 118 118 119 119 117 118 116 113 107 104 102 100 101 103 102 101 108 118
228 228 249 256 262 246 183 239 200 200 228 236 270 272 263 257 243 130 313 352 359 21 49 85 90 63 67 70 68 76 68 83 101 104 101 113 127 135 137 139 138 138 142 148 152 151 150 152 158 158 159 160 157 157 156 156 155 155 154 151 149 148 144 139 136 134 135 133 135 139 140 139 135 132 131 130 128 126 127 132 132 129 122 122 125 122 116 111 110 106 104 108 106 103 105 114 121
232 246 255 244 250 303 249 259 237 231 237 232 264 271 276 284 99 105 105 0 358 39 62 74 98 91 73 63 48 63 104 101 93 100 108 120 130 133 134 137 136 137 143 149 152 151 150 153 159 160 161 161 158 158 159 159 158 157 156 153 151 150 148 144 138 135 136 136 137 138 140 139 138 138 138 138 136 134 136 138 138 135 126 126 129 125 120 116 114 110 113 110 99 105 110 117 122
223 264 259 220 254 293 236 259 257 259 248 231 246 255 261 262 201 128 136 59 15 44 86 91 104 95 79 96 63 48 80 97 104 113 121 129 133 132 133 136 135 136 143 149 151 151 151 155 159 161 162 161 160 161 162 162 161 159 158 155 153 152 149 146 140 138 139 138 139 139 139 135 136 142 144 142 138 137 137 135 137 138 131 128 127 127 122 118 118 117 120 104 96 109 111 116 121
225 253 283 167 246 243 212 260 258 259 262 252 252 261 259 225 201 124 97 62 68 23 109 115 105 88 65 91 88 49 75 98 115 120 125 132 134 133 134 136 134 135 143 149 150 149 150 154 158 161 162 161 163 164 164 165 162 160 159 157 155 154 150 145 142 141 141 142 141 137 133 128 135 146 145 140 133 133 134 131 133 136 134 127 124 128 127 125 127 127 121 102 103 110 109 111 115
222 219 305 217 226 257 244 253 251 255 260 261 260 267 271 201 148 69 37 40 120 240 126 126 105 96 95 88 92 65 81 106 118 122 127 131 133 135 138 138 135 136 145 150 150 150 150 155 157 159 161 163 165 165 167 165 163 162 160 158 156 156 150 145 144 144 145 143 139 130 126 128 139 146 142 138 133 132 135 131 126 130 131 127 124 127 131 134 133 133 126 111 119 116 106 106 107
204 191 254 261 222 255 255 254 250 255 252 255 255 233 216 145 111 84 28 26 102 3 84 96 89 107 114 94 96 96 104 114 115 119 126 131 134 137 139 138 140 144 148 152 153 152 151 155 157 159 160 163 166 166 167 165 163 162 160 158 157 154 148 146 147 146 144 139 133 127 127 133 139 140 136 135 135 135 137 133 126 128 127 124 124 125 129 135 135 135 128 119 135 135 112 104 104
193 199 206 275 257 248 246 256 252 259 257 258 257 205 174 140 117 91 33 329 343 50 97 91 90 111 104 96 105 122 120 117 113 115 126 132 135 135 135 138 147 150 149 153 154 152 151 154 155 158 161 162 165 165 165 164 162 161 159 158 155 151 145 146 148 145 140 135 133 132 131 133 137 137 133 132 134 135 132 127 127 129 127 125 123 125 127 130 133 131 125 127 145 146 126 109 100
240 227 172 225 237 239 243 255 258 266 263 262 264 199 172 126 113 136 97 280 325 284 155 122 132 121 103 112 139 131 119 117 118 119 126 131 131 130 132 139 146 148 148 152 152 150 150 150 151 157 162 162 162 162 163 162 160 159 158 156 151 146 143 147 149 144 137 136 137 136 136 137 139 137 132 130 131 129 125 121 123 128 130 130 125 128 128 130 137 139 129 125 142 137 122 111 98
231 237 180 231 229 235 251 258 265 273 277 272 250 172 164 124 127 169 144 252 167 342 28 119 134 116 104 121 127 138 125 126 127 126 129 128 129 130 132 138 141 144 148 151 151 149 149 149 152 159 162 161 159 161 162 161 159 159 157 151 146 141 144 153 151 142 138 141 142 142 143 141 134 130 127 125 124 120 118 117 120 127 135 136 134 138 140 144 151 148 134 121 131 110 91 101 98
214 238 210 253 258 250 256 260 265 274 286 282 236 143 110 100 125 135 97 19 49 95 105 112 115 91 99 128 124 158 143 138 136 133 133 128 130 131 133 137 138 143 146 150 151 149 149 151 157 161 161 158 158 161 161 161 160 160 157 146 141 144 154 160 153 145 143 146 149 150 150 142 133 133 132 128 125 118 116 113 114 122 130 135 140 151 158 168 171 149 124 121 119 52 47 82 86
205 244 234 257 273 267 264 261 267 271 264 259 252 112 96 104 114 65 76 71 53 61 99 108 106 95 140 167 154 179 150 142 140 135 136 132 131 132 135 137 138 143 144 149 149 148 151 154 160 162 159 157 160 162 161 163 164 161 154 142 141 154 164 159 152 153 150 153 160 157 152 145 141 144 142 137 130 122 119 108 106 108 108 116 118 126 133 148 159 142 109 109 104 54 66 72 64
198 229 244 261 266 269 268 264 272 273 256 245 248 150 122 134 113 76 72 95 84 24 55 63 349 125 160 168 151 156 148 143 141 137 138 135 133 135 138 139 140 143 145 148 146 149 153 156 161 161 159 161 162 163 164 166 163 157 147 141 149 161 162 155 155 158 157 164 169 161 156 154 151 150 146 142 135 132 129 113 104 94 86 83 76 76 76 82 96 100 92 96 100 80 85 80 69
203 214 237 263 260 262 263 261 270 277 280 303 331 29 91 85 82 98 83 89 95 67 60 43 26 100 143 141 139 144 145 143 141 140 140 137 134 137 140 140 138 139 144 147 145 149 154 158 160 160 162 165 165 167 169 167 160 151 142 143 158 162 156 157 156 155 162 171 173 166 163 162 160 155 146 142 144 148 142 123 105 86 79 76 72 74 75 78 82 84 83 83 89 90 98 98 89
216 201 219 242 249 253 256 257 273 302 355 10 356 14 51 74 57 353 84 91 96 85 75 65 57 64 99 122 134 141 145 142 141 143 141 140 137 138 144 141 136 136 141 145 146 150 154 156 159 160 163 168 172 176 173 169 158 147 143 150 161 158 152 157 152 153 166 172 174 173 169 166 163 159 149 146 150 158 151 130 108 87 80 79 80 81 80 80 79 80 78 80 89 99 112 108 95
227 211 218 226 239 249 259 271 287 308 0 10 2 22 22 38 71 354 82 98 101 93 88 87 83 81 94 120 133 138 143 140 141 144 142 145 142 145 147 140 138 138 140 143 145 150 154 155 158 160 163 170 176 176 172 168 155 145 151 160 163 157 151 154 154 159 168 170 175 176 171 168 163 160 154 147 150 156 149 134 114 95 86 85 87 83 80 78 75 78 81 92 104 110 115 106 79
230 219 231 239 239 253 262 267 275 276 293 6 41 81 355 347 82 161 105 95 102 111 116 108 108 119 120 126 133 135 139 140 142 144 147 151 148 151 150 142 142 143 143 142 145 154 156 154 156 159 165 172 173 169 168 167 155 149 158 163 162 155 147 150 160 165 167 170 176 175 171 166 162 160 154 150 158 161 150 140 131 113 104 99 93 80 71 71 72 80 88 101 114 116 110 89 11
224 211 225 250 250 262 260 259 278 284 280 98 87 60 5 340 265 141 100 93 105 130 136 133 133 137 136 138 138 133 138 144 145 149 156 156 152 155 154 147 147 150 148 142 146 155 155 152 151 157 169 172 168 166 170 169 157 152 159 164 160 152 150 152 160 165 167 174 176 173 171 166 164 161 156 162 171 166 156 152 142 126 116 107 100 82 71 83 87 91 99 102 116 126 113 51 336
237 232 223 241 251 265 270 280 297 302 332 42 54 38 5 340 333 41 113 143 167 138 131 137 142 143 140 141 143 135 143 155 151 156 163 163 159 157 157 150 146 152 150 141 146 155 156 152 149 160 174 170 165 171 175 172 157 151 157 163 161 157 158 156 158 168 172 180 180 176 173 170 170 162 159 169 170 161 156 153 141 124 108 98 98 84 73 98 90 21 45 78 104 137 143 325 335
238 255 234 236 239 251 270 283 292 321 24 27 8 344 359 8 348 322 261 158 142 131 130 136 140 138 135 137 148 147 152 165 165 166 169 168 161 155 154 144 141 148 146 141 145 151 156 155 152 163 172 162 163 175 176 168 158 158 159 161 162 160 161 158 160 172 179 185 183 179 175 172 172 167 166 170 164 157 153 149 142 132 125 122 127 132 166 253 288 308 321 331 318 313 294 293 331
234 248 248 248 246 249 261 264 262 70 61 32 356 320 334 59 223 311 32 116 127 130 128 129 128 130 134 138 149 153 157 168 179 180 173 167 159 153 149 137 136 140 137 139 145 146 148 154 158 164 167 160 163 175 173 160 156 163 163 161 162 162 166 165 164 171 182 188 185 181 176 171 175 175 174 171 169 168 165 165 163 161 172 176 171 181 204 243 277 303 327 327 309 317 306 310 330
242 241 244 250 256 260 265 267 260 167 143 112 142 289 298 239 268 347 100 120 130 130 125 125 127 131 137 144 151 157 163 168 183 188 173 156 150 149 146 138 135 134 132 135 140 142 142 151 164 165 168 166 161 171 172 160 155 158 156 158 164 167 169 169 168 175 184 188 186 184 180 176 181 183 181 181 180 180 180 179 178 178 182 188 193 199 213 239 284 317 357 12 338 300 312 322 335
248 245 242 243 251 260 265 273 272 224 161 150 167 236 274 292 359 359 133 137 136 130 131 134 136 139 143 153 157 160 167 174 188 187 158 147 148 145 143 140 134 130 127 128 132 140 143 152 168 169 171 169 159 167 172 162 157 153 149 153 164 170 168 169 174 181 183 184 186 187 187 182 183 185 187 190 191 193 195 191 188 190 189 194 205 208 220 239 336 20 49 41 45 276 325 310 301
261 259 249 243 245 253 258 264 269 262 171 134 155 208 250 267 337 261 161 145 140 131 136 140 139 142 149 154 160 166 170 180 187 176 153 147 148 143 140 137 127 118 116 124 137 144 147 152 159 164 168 161 152 158 164 156 152 150 150 150 160 167 165 170 176 181 181 181 185 186 188 185 184 190 191 190 196 204 204 196 193 198 194 193 205 207 216 225 67 62 70 40 44 89 5 325 302
277 280 274 257 252 254 253 261 267 256 199 138 196 237 240 235 196 239 218 151 143 142 145 145 143 147 153 155 165 171 170 182 184 174 156 150 152 142 125 114 109 108 118 138 146 145 150 153 150 148 151 149 147 153 159 153 147 149 151 150 158 161 164 174 178 181 180 176 179 182 190 193 188 192 195 189 194 203 198 194 195 195 188 181 194 196 186 177 150 129 97 67 52 88 86 18 16
278 281 284 279 272 261 248 259 262 210 184 173 190 240 253 234 212 233 231 162 149 153 151 149 150 150 155 159 163 170 174 181 177 174 170 158 143 112 90 90 105 122 142 147 143 141 147 152 148 143 144 151 154 155 154 149 146 152 154 151 157 158 165 178 177 177 176 174 175 178 191 197 193 191 194 198 200 199 193 196 198 193 184 175 186 186 157 148 165 155 104 90 68 83 107 46 34
275 273 273 283 288 271 239 248 264 218 191 183 173 218 251 238 226 233 233 173 153 157 155 154 155 150 159 159 156 170 169 172 181 187 150 106 91 89 92 104 121 139 149 143 139 140 145 148 148 148 149 154 156 152 147 145 148 154 153 149 155 155 157 168 168 169 174 176 172 173 183 191 196 198 202 213 213 201 196 198 197 197 200 192 190 187 172 156 145 138 112 110 95 76 76 67 57
282 277 275 261 267 278 254 235 257 243 200 181 165 195 239 235 229 230 235 192 156 159 161 157 156 149 159 158 154 166 164 173 168 105 84 84 86 96 110 117 120 133 141 140 142 145 147 147 146 149 151 151 151 149 146 148 151 153 150 146 149 150 150 158 163 167 175 177 171 171 180 185 193 201 204 211 208 198 200 203 201 208 209 196 180 168 166 163 153 152 138 133 115 82 69 63 60
264 255 273 257 231 260 270 245 244 242 207 186 178 202 231 231 240 228 230 216 156 159 171 159 158 157 160 160 153 154 156 135 91 83 85 89 94 103 118 126 126 135 142 144 146 148 148 146 145 146 146 147 147 148 147 148 150 150 149 146 148 147 144 151 157 165 177 182 180 174 175 181 184 193 196 195 197 196 195 195 194 199 197 185 168 151 149 154 157 164 155 145 125 102 79 62 70
264 230 234 253 240 241 254 241 241 241 216 197 200 213 216 223 248 236 226 225 164 161 177 162 159 162 158 155 151 148 133 93 82 91 99 104 108 112 125 138 138 144 147 145 147 150 149 147 146 144 146 149 149 149 146 144 145 148 148 145 148 146 140 143 147 150 155 166 178 167 159 163 168 187 196 197 208 204 191 190 185 181 184 180 166 153 151 151 149 159 151 156 144 130 129 96 86
275 243 220 241 241 231 242 237 235 231 216 209 204 204 220 227 243 242 228 225 176 164 169 161 161 158 154 154 143 119 90 85 88 104 113 117 123 123 130 141 144 148 147 146 149 147 144 147 151 149 151 153 151 152 146 141 141 144 145 142 141 138 133 136 139 137 132 140 153 146 149 156 160 186 197 197 205 196 183 185 181 177 180 176 161 154 155 150 134 137 144 159 161 151 153 125 95
244 238 213 230 234 235 245 246 238 220 206 211 201 195 224 236 245 256 241 228 207 185 160 151 158 149 152 148 110 92 90 97 106 115 121 124 126 126 134 146 148 145 142 143 145 142 142 147 153 153 154 154 151 149 144 139 139 140 141 141 140 128 121 122 125 129 132 141 153 153 159 168 168 182 190 193 197 188 177 178 179 178 177 174 161 156 156 152 140 137 141 152 168 168 164 143 115
242 247 231 227 233 239 242 243 243 222 198 204 193 184 214 229 240 262 263 278 269 202 159 139 151 148 146 118 94 99 103 112 124 124 125 125 125 129 139 151 151 142 139 141 142 145 147 149 152 154 154 152 149 145 141 137 138 139 139 139 137 127 126 129 124 130 147 158 164 161 163 168 168 172 179 185 189 181 170 171 179 174 170 173 165 158 157 162 161 156 156 162 177 170 156 148 132
255 266 273 268 260 254 252 248 239 218 191 200 189 178 203 217 229 251 255 264 271 168 148 133 143 148 126 104 104 114 113 121 130 124 125 125 127 132 142 156 156 143 145 147 147 151 152 152 152 151 152 152 149 146 142 138 136 138 140 139 134 130 133 137 135 145 159 158 154 156 160 163 163 166 169 172 176 172 159 161 166 155 150 155 154 153 145 153 165 161 169 191 202 177 144 142 133
262 270 280 284 280 274 275 267 246 214 175 191 177 168 198 207 219 236 218 203 206 144 139 136 147 149 121 111 115 120 119 127 127 123 131 132 133 140 149 163 162 150 153 153 152 154 154 154 154 151 153 155 153 149 143 140 138 140 142 137 132 128 126 127 135 151 157 146 138 142 147 149 150 149 148 150 153 147 135 135 135 123 117 116 121 124 118 125 145 149 148 173 198 190 153 140 135
256 262 273 281 282 293 290 278 255 200 153 184 176 170 202 205 212 227 186 166 182 179 158 146 151 138 117 117 119 120 121 126 128 134 143 139 139 145 153 168 169 157 155 155 155 157 157 157 155 154 157 157 153 148 145 144 143 146 144 137 134 134 130 128 134 144 149 144 140 138 134 135 136 132 128 124 124 124 118 115 111 107 104 97 97 104 112 119 122 123 125 132 171 170 150 145 158
246 241 256 269 272 291 309 301 299 131 115 139 161 174 228 214 227 252 211 188 188 174 133 109 116 115 115 123 123 126 128 128 132 136 140 139 141 150 159 169 170 161 158 158 159 161 160 159 157 158 160 157 152 148 148 147 147 151 149 144 141 139 138 139 138 141 145 146 149 148 140 136 133 130 128 123 120 122 119 114 112 111 109 104 105 93 89 123 131 122 123 118 138 150 144 148 174
270 241 239 260 272 285 312 316 335 8 37 77 97 46 327 293 297 295 261 186 159 146 106 86 89 104 117 121 119 126 133 134 137 136 143 151 153 160 166 169 169 169 167 164 163 163 163 161 159 161 161 158 153 151 150 147 147 146 142 140 138 136 138 142 144 146 146 147 151 151 149 149 145 140 137 133 133 133 128 123 124 128 124 118 127 108 86 102 116 106 107 109 113 147 151 147 157
296 258 241 251 264 281 302 305 333 7 339 10 87 69 303 307 302 279 293 118 139 127 96 93 92 102 112 113 113 123 132 135 139 145 156 165 165 166 169 171 170 172 173 169 166 165 164 162 161 163 162 159 157 153 148 145 145 142 138 137 137 139 143 146 148 147 146 148 147 142 139 143 145 139 130 130 137 137 133 129 130 136 134 124 120 113 97 97 102 95 94 102 105 135 148 140 137
274 251 255 264 264 268 275 291 318 106 226 261 100 127 250 307 298 265 263 142 131 85 88 102 106 110 114 118 125 129 131 134 141 152 161 165 164 165 168 172 170 171 175 175 170 167 167 165 164 163 162 161 159 154 149 148 147 144 144 143 142 144 147 149 149 146 148 150 144 137 131 130 133 132 127 129 136 136 130 128 134 137 135 132 123 109 103 98 99 97 94 98 102 123 139 135 132
239 231 251 266 269 261 236 249 281 227 176 335 101 131 177 288 270 257 213 150 116 92 100 111 113 121 126 127 128 126 134 142 146 157 168 167 161 160 164 171 175 174 175 178 176 171 169 168 166 164 163 162 160 154 151 152 151 149 147 145 144 147 149 149 148 147 149 149 141 134 131 129 127 126 126 133 140 139 118 106 129 140 129 126 125 111 104 104 103 99 98 97 94 101 113 116 120
237 228 240 259 270 270 248 209 249 246 90 336 269 133 142 265 266 273 220 163 132 116 123 124 123 132 137 133 129 131 143 148 149 161 173 169 158 160 164 171 179 178 173 177 180 175 171 170 168 164 162 162 159 154 151 153 153 151 148 147 147 147 144 145 147 147 148 148 144 138 137 133 126 122 124 133 139 140 116 98 114 132 120 110 116 110 104 107 107 101 99 99 93 93 96 97 104
229 231 244 268 273 276 268 208 220 95 108 258 262 149 149 272 285 299 248 190 154 131 133 136 138 142 145 142 137 143 145 141 150 163 173 171 160 161 165 170 176 179 175 177 180 177 172 171 168 164 162 160 159 157 154 153 154 154 153 151 148 143 141 143 145 146 149 151 147 141 138 133 131 131 130 132 134 137 125 103 104 116 109 100 105 106 103 103 103 100 99 101 96 94 96 94 93
218 226 237 264 271 280 276 203 140 77 177 236 243 204 171 258 288 312 280 235 156 132 132 139 140 139 143 138 130 140 139 138 154 160 168 177 163 156 163 168 170 175 178 177 177 176 173 171 169 164 163 161 161 160 157 157 160 160 158 154 148 145 144 145 147 149 152 151 145 141 138 135 134 133 130 127 127 132 130 113 105 108 106 107 109 107 106 102 97 96 98 102 99 94 95 95 88
210 215 195 240 281 311 330 340 105 121 246 235 208 212 193 205 281 339 355 335 114 133 139 139 141 141 140 131 125 136 135 139 154 154 163 179 163 152 163 167 166 171 178 176 173 173 174 173 168 164 166 166 165 163 160 165 167 161 156 154 152 151 151 151 151 153 153 150 146 143 142 139 135 133 132 129 126 129 131 123 115 110 108 112 115 110 107 104 99 96 96 100 101 94 92 91 85
191 196 160 132 309 324 325 291 192 188 239 231 193 198 212 192 271 28 33 19 60 127 138 140 150 151 144 135 128 134 135 138 149 151 156 173 168 159 168 169 166 171 179 176 170 170 173 173 169 167 169 170 170 167 167 171 170 159 154 155 155 155 156 156 155 154 153 153 153 150 147 143 138 135 135 133 131 133 134 130 124 115 107 108 115 114 109 108 106 101 98 101 102 97 93 88 83
176 177 150 150 162 154 255 259 231 213 244 239 204 195 221 202 63 47 56 49 66 111 132 142 151 151 142 133 128 134 131 124 135 145 148 161 171 169 173 173 166 169 179 177 169 167 168 170 171 172 172 173 173 173 174 175 169 159 155 156 158 158 157 157 156 156 156 159 159 153 148 146 142 139 137 136 134 134 134 133 131 126 112 105 115 118 113 110 108 104 100 99 101 102 98 90 83
205 189 152 166 168 159 208 223 182 223 265 278 229 194 188 183 155 69 78 71 73 95 118 130 133 130 126 123 127 129 108 81 80 93 119 160 175 174 171 169 160 162 172 171 162 162 165 170 176 178 175 173 175 178 180 175 165 159 156 158 160 159 157 156 157 160 161 162 159 154 152 149 145 144 142 141 140 135 133 132 132 131 121 110 111 112 108 106 106 104 102 98 99 102 100 92 86
270 242 172 199 193 155 156 199 186 171 52 332 296 122 1 176 177 77 83 81 78 85 92 102 108 110 113 117 121 113 100 90 90 99 146 171 168 167 166 164 154 148 150 154 160 167 175 180 184 183 178 175 178 180 179 171 164 162 159 158 158 157 157 157 158 162 163 161 159 157 156 151 148 149 146 143 143 140 135 131 127 128 126 119 116 114 112 113 112 110 109 105 102 104 102 94 90
289 295 218 225 195 143 132 241 274 82 85 276 145 93 342 77 107 69 77 84 85 91 93 97 100 103 107 109 107 106 116 128 130 147 172 164 142 155 171 167 142 129 132 158 180 183 186 187 187 184 182 183 184 183 178 172 168 166 160 157 156 157 160 159 160 164 164 161 162 161 157 153 152 151 147 143 141 137 133 132 131 130 130 126 122 119 119 121 119 114 112 110 108 110 109 102 97
155 231 229 261 28 91 110 123 6 49 113 259 155 143 167 138 140 107 77 82 89 98 103 101 96 101 107 105 107 115 130 141 139 146 150 125 124 150 173 162 125 127 147 172 185 190 191 189 185 183 186 187 185 186 181 174 170 166 159 156 158 160 161 162 163 164 161 161 164 163 158 157 156 153 148 143 139 138 137 137 136 132 129 126 123 122 121 120 118 115 114 115 115 115 113 109 105
174 205 209 34 52 32 14 105 137 144 153 296 309 147 137 110 167 141 123 127 122 108 105 108 107 109 115 119 122 125 129 134 129 130 132 126 128 136 150 149 122 130 156 173 180 196 198 190 178 176 183 185 186 186 179 172 170 166 163 159 160 164 164 163 163 161 161 163 165 164 162 161 158 156 150 144 141 143 143 139 135 132 130 128 127 127 127 125 122 122 121 118 116 116 113 108 106
214 203 131 100 135 154 184 149 153 149 166 249 336 23 338 288 305 197 174 165 143 132 118 111 118 124 132 139 137 133 136 138 134 134 139 132 125 128 137 139 127 127 153 176 186 203 205 194 183 178 179 178 181 182 174 166 159 159 162 156 151 163 166 163 160 158 158 162 164 163 164 161 158 157 151 146 145 145 142 139 136 136 135 132 129 127 127 127 125 124 124 120 116 115 114 111 108
284 253 165 170 157 126 115 165 160 136 156 192 121 9 271 279 308 239 176 159 141 138 129 118 119 118 124 135 134 137 140 137 137 140 142 138 130 132 134 122 119 133 151 187 200 199 199 198 193 186 183 178 178 177 169 160 153 151 153 142 130 145 155 155 156 155 151 153 159 163 163 160 158 159 153 148 148 145 143 143 140 140 138 134 134 131 128 130 128 125 124 127 128 122 118 118 116
32 1 4 347 134 110 102 328 300 73 128 187 154 151 282 325 340 314 156 135 119 117 117 111 93 82 86 97 118 129 136 139 141 143 144 142 132 131 137 132 123 129 137 150 163 151 161 193 199 194 196 193 186 177 163 152 152 148 141 131 125 134 144 146 147 151 151 150 153 159 162 161 159 159 156 151 150 149 149 148 144 144 141 137 138 135 132 134 131 127 117 111 122 125 119 116 118
Height
768 770 770 772 771 772 774 773 787 784 784 797 789 782 765 745 746 743 738 731 730 722 708 707 709 712 722 738 743 744 747 750 755 761 771 764 755 757 756 756 758 759 763 766 768 770 771 774 776 778 780 782 784 786 788 790 791 793 795 797 798 799 800 802 803 804 805 806 807 808 809 809 811 812 813 814 815 816 817 818 819 820 821 822 822 823 823 824 824 825 826 826 827 827 827 827 827
768 770 770 772 771 775 775 771 789 789 790 802 784 772 755 742 747 744 738 731 730 720 706 707 712 719 724 730 732 739 749 747 746 750 756 755 757 759 758 759 759 760 763 767 769 770 773 774 777 778 781 783 785 787 789 790 792 794 795 797 799 800 801 803 804 805 806 807 808 809 810 810 812 813 814 815 816 817 818 819 820 821 822 822 823 824 824 825 825 826 827 827 828 829 828 828 829
768 770 770 773 771 773 774 774 790 792 796 800 778 760 748 748 746 739 733 723 720 711 707 709 714 723 727 735 737 746 756 748 745 749 753 755 757 760 761 760 760 762 764 767 770 771 773 775 777 779 781 783 785 787 789 791 792 794 796 798 799 801 802 803 804 806 807 808 809 810 811 811 813 814 815 816 817 818 819 820 821 822 823 823 824 825 825 825 826 827 828 828 829 830 829 829 830
768 770 770 772 774 775 777 781 787 791 796 791 774 755 746 746 739 733 728 717 711 706 709 715 726 727 728 745 746 749 756 749 748 749 753 755 756 761 761 761 762 763 766 768 770 772 774 776 778 780 782 784 786 788 790 792 793 795 797 798 800 801 803 804 805 807 808 809 810 811 811 812 813 814 816 817 818 819 820 821 822 823 823 824 824 825 825 826 827 827 828 829 830 830 831 831 831
768 770 770 772 778 776 777 780 779 786 788 779 769 753 742 739 732 730 723 716 709 708 712 718 734 732 729 743 745 753 757 750 749 747 752 756 757 760 760 762 764 765 768 769 771 773 774 777 779 781 783 784 787 789 790 792 793 795 797 799 800 802 803 805 806 807 809 810 811 812 812 813 814 815 816 818 819 820 821 822 823 824 824 825 825 826 826 827 828 828 829 830 831 831 832 832 833
768 769 769 771 774 770 777 784 780 781 770 763 763 749 739 734 728 726 720 717 711 709 712 720 733 735 741 744 742 749 750 749 751 749 752 757 759 760 761 763 765 767 769 770 771 773 775 777 779 781 783 785 787 789 791 792 794 796 797 799 801 802 804 805 807 808 809 811 812 813 814 815 816 816 817 818 820 821 822 822 824 824 825 825 826 827 827 828 829 829 830 831 832 832 833 833 834
768 771 770 773 773 770 783 789 783 777 758 751 752 742 736 731 724 722 721 720 717 712 713 725 727 736 751 747 747 748 744 747 749 751 754 757 760 760 762 764 766 768 769 771 772 774 776 777 779 781 783 785 787 789 791 793 795 796 798 800 801 803 805 806 807 809 810 811 813 814 815 816 817 818 819 819 821 822 823 824 825 825 826 826 827 828 828 829 830 830 831 832 833 833 834 835 835
769 772 769 776 779 775 783 785 779 771 754 743 740 736 731 725 721 721 722 721 723 718 717 727 723 741 756 746 756 754 745 749 748 754 755 757 761 761 764 765 767 769 770 772 773 775 776 778 779 781 783 786 788 790 792 793 795 797 799 801 802 804 805 807 808 809 811 812 813 815 816 817 818 819 820 821 822 823 824 825 826 826 827 827 827 828 829 830 831 831 832 833 834 835 835 836 836
769 772 771 777 782 780 781 780 773 761 750 741 734 732 725 719 718 720 722 721 722 719 719 723 720 744 759 750 759 755 748 752 751 755 755 759 761 762 765 765 768 769 771 773 774 776 776 779 780 782 784 786 788 790 792 794 796 798 800 801 803 805 806 808 809 810 811 813 814 816 817 818 820 820 821 822 823 824 825 826 827 828 828 828 829 829 830 831 832 832 833 834 835 836 836 837 837
769 771 772 776 781 785 784 778 768 755 745 736 730 727 722 717 717 719 722 722 720 720 722 721 724 743 755 757 761 754 752 753 752 756 756 759 761 763 765 766 769 769 771 773 774 776 777 780 780 783 785 786 788 790 793 795 798 799 801 803 804 806 807 809 810 811 812 814 816 817 818 819 820 821 822 822 824 825 826 827 828 829 829 830 830 830 831 831 833 833 834 835 835 836 837 838 838
772 769 770 779 784 788 785 776 764 752 741 731 725 721 718 715 717 720 721 722 718 722 725 725 736 744 750 760 761 754 752 753 753 755 757 759 761 763 765 767 769 769 771 773 775 777 778 781 782 784 785 787 789 792 795 797 799 801 802 804 805 807 808 810 811 813 814 816 817 818 819 820 821 822 822 823 824 825 826 828 829 830 831 831 831 831 832 833 834 834 835 836 836 837 837 838 838
775 770 770 784 786 783 777 771 761 749 740 733 727 719 714 713 718 722 721 724 719 722 723 724 736 739 752 763 758 753 751 753 754 755 758 759 761 763 765 767 769 771 772 773 776 777 779 782 784 786 787 789 791 794 796 798 800 802 804 805 807 808 810 811 812 814 816 817 817 818 819 820 821 822 823 824 825 825 826 828 829 831 832 832 832 833 833 834 835 835 836 837 837 838 838 839 839
773 770 773 781 776 773 770 766 758 750 744 735 726 716 712 714 718 720 719 721 719 726 726 722 728 732 752 762 754 754 752 754 753 755 758 759 762 764 766 768 770 772 773 775 776 778 781 782 784 786 788 790 792 795 797 799 802 803 805 806 808 810 811 812 813 816 817 817 818 818 819 820 822 823 824 825 826 826 827 828 830 831 832 833 833 833 834 834 835 836 837 838 838 838 839 839 839
767 765 771 777 769 767 765 762 755 752 750 733 721 713 710 713 714 713 715 723 725 728 728 720 724 735 754 761 759 757 752 753 753 755 758 760 763 764 768 769 772 773 775 776 777 779 781 783 785 787 789 791 793 796 798 801 802 804 806 807 809 811 811 813 815 817 817 818 818 818 819 820 822 823 825 825 826 827 828 829 830 832 833 833 834 834 834 835 835 835 836 838 838 839 839 840 840
761 761 766 773 770 767 762 758 753 752 748 729 719 713 712 712 708 712 714 727 734 726 724 722 722 737 754 758 760 756 751 752 753 756 758 762 764 766 769 770 773 774 776 778 778 781 782 784 786 788 790 792 795 797 799 802 803 805 806 808 810 810 811 814 817 817 818 819 819 818 819 821 823 824 825 825 827 828 829 830 831 833 834 834 834 834 835 835 835 836 837 837 838 839 839 840 841
754 758 766 773 773 771 761 753 749 751 743 726 717 711 716 714 706 714 711 719 735 728 727 731 724 731 744 747 750 748 749 752 752 756 759 762 765 767 770 771 774 775 777 779 780 782 783 785 787 790 792 794 796 798 800 802 804 806 807 809 810 811 812 816 818 818 819 820 819 819 820 821 823 824 825 826 827 829 829 831 832 833 834 835 835 835 835 836 836 837 837 838 838 839 839 840 841
751 758 770 775 773 770 758 749 748 747 738 726 719 713 720 721 711 711 709 715 734 735 733 735 729 728 735 738 741 744 749 751 752 756 759 762 765 768 771 772 774 776 778 780 782 783 784 787 788 791 793 795 797 799 801 803 805 807 808 810 811 812 814 816 818 819 819 819 820 820 820 822 823 824 825 826 827 829 830 831 833 834 835 835 835 835 836 836 836 837 838 838 838 838 839 839 841
754 762 771 775 772 763 750 744 741 737 734 728 721 716 720 725 720 713 715 727 734 738 739 737 735 734 734 736 740 745 749 751 752 756 759 761 764 767 770 772 774 776 779 781 783 785 786 788 790 792 794 796 797 799 801 803 806 807 809 810 812 814 815 816 817 818 819 819 821 820 821 823 824 825 825 826 827 829 830 832 833 834 835 835 835 836 836 836 836 837 838 838 838 838 838 839 841
755 760 767 769 761 749 739 738 736 733 732 727 720 717 718 722 721 715 725 738 737 743 747 742 744 745 742 740 742 746 748 751 753 756 758 761 764 766 769 772 774 776 778 781 784 785 787 789 791 793 794 796 797 799 802 804 806 807 810 811 812 815 815 816 817 818 818 819 820 820 822 823 824 825 825 827 828 829 830 832 833 834 835 835 835 836 836 837 836 836 837 838 837 837 838 839 840
752 756 765 760 749 741 734 734 733 729 727 724 723 719 719 720 717 718 727 739 741 746 750 747 750 750 749 747 744 746 749 752 753 756 759 761 764 766 768 771 773 776 778 781 783 785 788 790 792 794 795 796 797 800 802 804 806 808 810 811 812 814 815 816 817 818 819 820 820 821 823 823 824 825 826 827 828 829 830 832 833 834 835 835 836 836 836 836 836 836 837 837 837 837 837 838 840
749 751 760 751 742 742 733 730 729 726 723 723 722 720 724 719 714 719 725 738 746 744 743 744 748 748 748 749 746 746 749 752 754 757 759 761 764 767 769 771 774 776 779 781 783 786 788 790 793 794 795 796 798 800 802 804 806 808 810 812 813 814 816 817 818 820 820 821 821 822 823 824 825 826 827 828 829 830 830 832 833 834 835 835 836 836 836 836 836 837 837 837 837 837 837 838 839
749 747 748 742 740 741 731 727 728 725 722 722 722 723 725 719 715 720 724 736 742 736 735 737 740 742 744 746 747 746 749 752 753 757 759 761 763 766 769 771 774 777 779 782 784 786 788 790 792 794 794 796 799 800 801 803 806 808 810 813 813 815 817 818 819 820 821 821 822 824 824 824 826 827 828 829 829 830 831 832 833 834 835 836 836 836 836 835 836 837 837 837 836 837 837 838 838
750 747 741 737 736 737 729 726 727 723 723 726 725 723 722 724 723 720 721 728 729 726 728 732 736 738 740 744 746 747 749 752 753 756 758 760 762 765 769 771 773 776 779 782 784 787 789 790 793 794 795 797 800 800 801 804 806 808 810 813 813 815 817 819 820 820 820 821 823 824 824 825 826 827 828 829 830 830 831 832 833 835 835 836 836 836 836 836 837 837 837 836 836 837 838 838 838
747 747 739 734 732 732 728 724 723 721 723 724 723 722 725 731 728 722 724 725 723 724 724 729 735 737 740 744 746 748 749 751 753 755 757 759 762 765 767 770 773 775 779 782 784 786 789 791 794 795 797 800 801 801 802 804 806 808 811 813 813 814 816 818 820 819 820 821 823 824 825 826 827 828 828 829 830 831 832 832 833 835 836 836 836 837 837 837 837 837 836 835 835 837 838 838 838
744 744 737 732 729 728 724 722 722 721 721 720 723 727 728 728 725 727 732 727 723 724 725 729 734 738 742 744 747 748 750 751 752 754 757 760 764 766 768 770 772 775 778 781 784 786 788 791 794 795 798 801 802 802 802 804 807 809 812 813 814 814 816 818 819 819 820 822 823 824 825 826 827 828 829 829 831 831 832 832 834 834 835 836 836 837 837 837 837 836 835 835 836 837 837 837 837
739 737 733 730 729 726 723 722 722 722 720 719 725 731 728 723 724 730 731 727 724 723 726 730 734 739 743 744 746 748 750 751 752 754 757 761 764 766 767 769 772 775 778 781 784 786 787 789 792 793 795 799 801 801 802 804 807 809 812 814 813 814 816 817 819 820 822 823 824 825 826 827 827 828 828 829 830 831 831 832 833 834 835 836 836 837 837 837 837 836 835 836 837 837 837 837 837
733 732 730 728 727 723 721 722 721 720 720 720 726 732 728 722 728 736 730 723 724 726 731 731 733 739 742 744 745 746 749 750 752 754 757 760 762 764 767 770 773 776 781 785 785 785 787 787 789 791 793 797 799 801 803 805 808 810 812 813 813 814 816 818 820 822 824 825 825 826 826 827 827 827 828 829 830 830 831 832 833 834 835 836 836 836 837 837 836 836 836 837 837 838 838 837 838
730 731 730 727 725 723 721 722 720 720 721 719 724 730 728 725 731 734 726 722 724 728 733 733 735 738 740 743 745 746 748 749 751 754 757 759 760 763 767 772 776 778 783 788 788 786 787 787 788 791 793 796 799 801 804 805 808 811 813 813 814 815 817 819 821 823 825 826 827 827 827 827 828 828 828 829 829 830 831 832 833 834 835 835 835 836 836 836 836 836 836 837 838 838 838 838 838
730 730 735 732 727 726 723 721 720 721 723 717 722 736 737 732 733 726 720 721 724 728 732 732 734 737 739 742 744 746 747 748 751 753 755 757 761 764 769 776 780 782 784 785 786 786 787 788 789 791 793 795 797 799 802 805 808 811 813 815 816 817 819 821 823 824 825 826 827 827 826 826 827 827 827 828 829 831 831 832 833 834 834 834 834 835 835 836 836 837 837 838 838 838 838 837 837
731 730 736 737 737 734 723 720 720 721 722 714 724 748 747 735 729 721 716 719 726 730 731 731 733 736 739 741 744 746 747 749 750 753 757 761 765 768 774 781 782 785 786 785 785 786 787 788 789 792 793 795 796 799 802 804 807 809 812 814 816 818 819 821 823 824 825 826 826 826 825 825 826 827 827 828 829 830 831 832 833 833 834 834 834 835 836 836 836 837 837 837 838 838 837 837 837
734 735 736 739 747 742 724 719 722 724 721 712 726 750 747 734 726 719 714 716 724 731 731 731 733 734 738 741 743 746 747 749 751 757 764 767 770 773 777 782 784 789 789 786 785 785 786 788 790 792 795 797 798 801 803 805 807 809 811 813 815 817 818 820 821 823 824 825 825 825 824 824 825 827 828 829 829 830 831 832 833 833 834 834 835 835 836 836 836 836 836 837 837 837 837 837 837
738 745 748 743 746 744 727 720 722 726 721 712 727 746 742 732 724 716 712 713 721 730 731 731 732 734 738 740 742 746 747 750 758 765 769 772 774 775 777 779 783 790 789 785 784 784 786 788 790 793 796 798 799 801 803 805 806 808 811 813 814 816 817 819 820 820 822 823 824 825 825 825 826 827 828 829 829 830 832 833 833 834 834 835 835 835 836 836 836 836 836 836 836 836 837 837 838
742 747 753 747 744 745 735 723 717 720 721 717 726 740 739 729 721 715 712 712 717 726 729 729 731 734 737 740 742 746 749 756 765 769 770 771 773 775 778 779 781 786 786 784 783 784 786 788 791 794 796 798 799 801 803 804 806 808 810 812 814 815 816 817 818 820 821 822 824 824 824 824 825 826 828 829 829 831 832 833 834 834 834 834 835 835 835 835 835 835 835 835 835 836 837 838 838
752 746 748 744 741 743 740 729 717 714 721 722 723 731 733 725 718 714 712 711 715 720 724 727 730 734 737 739 743 748 755 765 770 769 769 771 773 776 780 784 784 783 782 782 783 784 786 789 791 793 795 797 799 800 802 804 805 807 809 811 813 814 815 816 817 820 821 821 822 823 824 824 825 827 828 829 830 831 832 833 833 834 834 834 834 834 834 834 835 835 835 835 835 836 837 837 838
755 750 747 744 739 739 739 731 718 713 719 723 725 730 729 722 716 713 711 711 715 716 718 724 728 732 736 738 745 755 762 769 771 769 768 769 770 773 779 786 788 784 782 783 783 785 786 788 790 793 795 797 799 800 802 803 805 806 808 810 811 812 813 815 817 819 820 823 824 825 826 826 827 828 829 830 831 832 833 833 833 833 834 834 834 834 834 834 835 835 835 835 836 836 837 837 838
744 742 743 745 742 738 731 722 712 710 718 721 724 729 726 722 717 712 709 708 712 715 715 721 727 730 734 741 753 761 765 769 770 769 769 769 769 771 777 786 789 786 784 784 785 785 785 787 789 792 795 796 798 800 801 803 804 806 808 810 810 810 813 815 816 819 822 826 827 828 828 828 828 829 829 830 831 832 833 833 833 833 833 833 833 833 833 834 834 835 835 836 836 836 837 838 838
736 737 739 739 739 736 725 715 706 703 715 719 718 724 723 721 718 711 709 709 710 711 714 722 728 730 736 748 760 763 765 769 769 770 771 770 770 773 778 784 788 787 784 784 785 786 785 786 788 790 793 795 796 798 800 801 803 805 807 809 809 810 813 815 817 821 825 827 828 828 828 828 828 829 830 831 831 832 832 833 833 833 833 833 833 833 833 833 834 835 836 836 837 837 838 838 839
736 738 741 738 736 733 720 710 701 696 711 719 715 721 723 719 716 711 709 711 711 711 715 724 729 730 739 752 760 761 763 767 768 770 771 770 769 771 775 781 786 784 783 783 784 786 786 786 788 789 791 793 795 797 798 800 802 804 806 807 808 810 812 814 817 822 825 827 828 828 828 828 829 829 830 830 831 831 831 832 832 832 833 833 833 833 833 833 834 835 836 836 837 837 838 838 839
736 737 740 741 735 730 721 706 695 693 706 716 714 719 722 716 713 711 710 710 709 709 712 721 726 731 743 752 756 758 762 765 766 769 770 769 769 771 773 777 782 782 782 783 783 785 785 785 787 788 790 792 794 797 798 800 802 804 806 807 808 810 812 816 818 822 824 826 827 827 828 828 828 829 829 830 830 830 831 831 831 832 832 833 833 834 834 834 834 835 835 836 836 837 838 838 839
736 736 740 742 732 733 734 716 699 694 701 711 714 717 719 714 711 710 709 708 707 707 711 720 727 735 744 748 751 755 759 763 766 769 772 772 772 773 773 774 778 781 782 781 781 782 783 784 785 787 789 791 793 796 798 800 802 804 806 808 810 812 814 817 820 822 824 825 826 827 827 828 828 828 828 829 829 830 830 831 831 832 833 833 834 835 835 835 835 835 836 836 836 837 838 839 839
734 732 736 738 730 732 736 724 710 701 700 705 714 726 726 717 716 715 708 708 709 709 716 730 737 740 744 746 750 754 757 760 764 769 772 773 773 773 773 773 775 778 778 779 779 780 782 782 784 786 788 791 793 795 798 800 801 803 805 808 811 813 815 818 820 822 824 824 825 826 827 827 827 828 828 829 830 830 831 831 831 832 833 834 835 836 836 836 836 837 836 837 837 837 838 839 840
736 730 728 728 726 729 730 725 724 724 721 710 714 741 743 721 719 720 712 713 714 711 720 738 745 744 747 750 753 756 756 758 761 763 766 770 772 771 771 772 774 776 778 780 781 781 781 782 783 785 787 790 792 794 797 799 800 801 803 806 809 812 814 817 819 820 822 824 825 826 826 826 827 827 828 829 830 831 832 832 832 833 833 834 835 836 837 837 838 838 838 837 837 838 839 839 840
741 730 722 721 721 726 728 726 732 741 737 717 714 741 751 732 723 720 717 717 718 723 733 743 746 746 749 752 754 755 755 758 761 762 763 767 770 769 770 772 774 776 778 780 782 782 782 782 783 785 787 789 791 793 795 797 799 800 802 805 807 810 813 815 818 820 822 823 824 825 826 826 827 827 828 829 831 832 833 833 833 833 834 834 835 836 837 838 839 839 839 838 838 838 839 839 840
740 724 718 722 720 722 725 725 732 734 729 723 718 728 747 747 731 718 718 720 726 741 748 746 746 747 748 751 753 754 755 759 762 763 763 764 766 767 770 772 774 776 778 780 781 782 782 782 783 784 785 788 790 792 795 796 798 800 802 805 807 809 811 814 817 819 821 823 824 825 826 826 827 827 828 829 831 833 833 834 834 834 835 835 836 837 838 839 840 840 840 839 839 839 839 839 840
728 716 716 720 718 718 718 722 728 724 728 740 729 724 747 754 731 717 720 724 735 751 752 746 747 746 746 750 753 753 755 758 762 764 763 762 764 767 769 771 773 776 778 780 781 782 783 783 783 784 785 787 790 792 794 795 797 799 801 804 806 809 811 813 816 819 821 823 824 825 826 826 827 828 829 830 831 832 834 834 834 835 836 836 836 837 839 840 841 841 840 840 840 840 840 840 840
716 711 715 716 715 716 716 721 726 725 737 750 736 727 748 755 733 722 725 724 734 750 750 745 744 743 743 747 751 752 751 756 761 762 761 761 763 767 769 771 773 775 778 780 782 783 784 785 785 785 786 788 790 791 792 794 797 798 800 802 804 807 809 812 816 818 821 822 824 825 825 826 827 828 829 830 831 832 834 835 835 836 836 837 837 838 839 840 841 841 841 841 841 841 841 841 840
710 712 717 719 719 717 719 719 721 736 749 747 733 727 742 754 740 729 731 722 723 741 750 748 744 741 741 744 750 753 751 755 760 761 761 762 764 767 770 772 773 775 777 779 782 783 784 785 786 787 788 790 790 791 792 794 796 798 799 801 803 805 808 811 815 818 820 822 823 824 825 826 827 828 829 830 831 832 834 835 835 836 837 837 838 839 839 840 841 841 841 841 841 841 841 841 841
709 715 719 729 730 725 728 726 726 750 760 743 729 724 736 754 747 735 733 722 717 731 743 746 743 742 743 746 750 752 752 756 759 761 763 764 766 768 770 771 772 773 776 779 781 783 785 786 787 788 790 791 792 792 794 795 797 798 799 800 802 804 807 810 813 817 819 821 823 824 825 826 827 828 829 830 831 833 834 835 836 837 837 838 839 839 840 840 841 842 842 842 842 842 842 842 842
712 716 722 739 748 746 749 747 744 755 753 735 724 727 740 750 745 737 736 727 722 726 732 736 738 740 744 747 750 751 752 755 758 761 764 766 767 768 769 770 771 772 774 778 781 784 786 788 788 789 790 791 793 794 795 796 797 799 800 801 802 804 806 809 812 815 818 820 822 823 824 825 826 828 829 830 832 833 834 835 836 837 838 839 840 840 840 841 842 843 844 844 844 844 844 844 843
715 720 726 743 756 764 768 759 752 754 746 729 720 728 744 748 742 738 737 732 728 727 730 731 732 737 741 744 749 751 752 756 760 763 766 768 768 768 769 771 771 773 775 779 783 786 788 790 790 790 791 792 794 795 797 798 799 799 800 801 803 804 806 808 811 814 817 819 821 822 824 825 826 828 829 831 832 833 834 835 836 838 839 840 841 841 841 842 843 844 845 846 845 846 846 845 846
712 710 717 734 742 754 764 760 756 756 748 734 726 735 750 754 750 740 734 733 730 731 734 733 733 737 739 743 748 751 756 760 764 768 770 769 768 769 771 772 774 776 779 783 787 789 790 791 791 791 791 793 795 797 798 799 801 801 802 803 804 805 806 808 810 813 816 818 820 822 823 825 826 828 829 831 833 834 835 836 837 838 839 841 841 842 842 843 844 845 846 847 847 848 847 847 847
713 704 714 728 726 731 748 754 750 748 750 744 740 748 750 747 747 739 733 736 734 736 738 738 740 740 741 746 749 753 760 762 765 769 770 767 768 771 772 773 774 778 783 787 789 790 790 790 790 790 791 793 794 795 797 799 800 802 803 804 805 806 808 809 811 814 816 818 820 822 823 825 827 828 829 831 833 834 835 836 837 838 840 841 841 842 843 843 845 846 847 848 849 849 849 849 849
717 715 720 718 710 716 738 751 744 743 756 753 746 756 753 745 749 745 740 742 741 742 743 743 746 745 746 750 753 757 760 760 760 761 762 764 767 770 771 773 774 776 783 787 788 788 787 786 787 789 790 791 792 794 795 797 799 801 803 803 804 806 808 810 812 814 816 818 820 822 824 825 827 828 829 831 833 834 835 836 838 839 840 841 841 842 843 844 845 846 847 849 850 851 851 851 851
716 721 715 706 708 715 728 748 754 754 764 755 744 756 759 754 758 753 748 750 749 748 748 748 749 749 751 754 755 758 760 760 760 760 762 766 767 769 770 773 775 774 777 782 786 788 787 787 787 787 788 789 791 794 795 798 800 801 802 803 805 807 809 811 813 815 817 818 820 822 823 825 827 828 829 831 832 834 835 837 838 839 840 841 841 842 843 844 845 846 848 849 850 851 852 852 852
703 707 701 707 727 733 733 747 757 761 769 760 749 755 759 758 758 754 755 755 752 752 751 752 754 753 755 756 756 759 761 762 763 763 766 767 767 769 770 773 776 774 773 776 783 788 788 788 789 788 788 789 791 794 797 799 800 802 803 805 806 808 809 812 813 815 817 819 820 822 823 825 827 829 830 831 832 834 835 837 838 839 840 841 842 843 844 845 845 847 848 850 851 852 852 852 853
695 698 701 710 724 732 735 742 748 758 769 767 761 763 763 760 757 754 756 755 751 753 753 754 756 756 757 757 758 761 762 763 764 765 767 768 769 770 771 774 777 776 775 775 780 787 789 789 790 790 791 792 793 796 798 800 801 802 804 806 807 809 810 812 814 816 818 820 821 822 824 826 827 829 830 831 832 834 836 837 839 840 841 841 843 844 845 845 846 847 849 850 851 852 853 853 853
707 709 714 716 715 720 731 738 738 746 759 765 768 773 768 759 754 752 751 751 750 751 752 754 755 756 758 759 760 762 762 762 765 766 768 769 770 771 772 774 776 776 775 774 779 788 792 791 791 792 793 794 795 797 799 801 802 803 805 806 808 810 811 812 814 817 819 820 822 823 825 827 828 829 830 831 832 834 835 837 839 840 841 842 843 844 845 846 847 848 849 850 851 852 853 853 853
717 720 721 722 721 725 739 748 742 740 752 758 762 774 773 760 756 754 749 747 748 750 751 754 756 756 759 760 761 762 762 761 763 766 768 769 770 772 773 775 776 775 774 777 784 791 794 793 792 794 795 795 796 798 800 801 802 803 805 807 810 812 813 814 815 817 819 821 822 823 825 827 828 829 830 830 831 833 835 837 838 840 841 842 843 844 846 846 847 849 850 851 852 852 853 853 853